| time (UTC) | temp F | wind direction | speed MPH | gust MPH | rain 1hr in | rain 24hr in | rain mn in | humidity % | barometer mb |
| 20260901053024 | 84 | 108 | 3.0 | 0.0 | 0.00 | 0.00 | 0.00 | 55 | 1010.6 |
| 20260901051519 | 84 | 107 | 3.0 | 0.0 | 0.00 | 0.00 | 0.00 | 54 | 1010.4 |
| 20260901050017 | 84 | 106 | 1.0 | 0.0 | 0.00 | 0.00 | 0.00 | 52 | 1010.4 |
| 20260901044516 | 85 | 107 | 2.0 | 0.0 | 0.00 | 0.00 | 0.00 | 49 | 1010.3 |
| 20260901043016 | 85 | 107 | 2.0 | 0.0 | 0.00 | 0.00 | 0.00 | 49 | 1010.2 |
| 20260901041515 | 85 | 107 | 1.0 | 0.0 | 0.00 | 0.00 | 0.00 | 49 | 1010.2 |
| 20260901040016 | 86 | 107 | 0.0 | 0.0 | 0.00 | 0.00 | 0.00 | 47 | 1010.3 |
| 20260901034514 | 87 | 107 | 1.0 | 0.0 | 0.00 | 0.00 | 0.00 | 46 | 1010.3 |
| 20260901033028 | 87 | 107 | 0.0 | 0.0 | 0.00 | 0.00 | 0.00 | 46 | 1010.2 |
| 20260901031514 | 87 | 107 | 1.0 | 0.0 | 0.00 | 0.00 | 0.00 | 45 | 1010.2 |
| 20260901030015 | 87 | 107 | 0.0 | 0.0 | 0.00 | 0.00 | 0.00 | 44 | 1010.2 |
| 20260901024514 | 88 | 107 | 1.0 | 0.0 | 0.00 | 0.00 | 0.00 | 42 | 1010.0 |
| 20260901023012 | 89 | 107 | 2.0 | 0.0 | 0.00 | 0.00 | 0.00 | 41 | 1009.7 |
| 20260901021517 | 90 | 107 | 1.0 | 0.0 | 0.00 | 0.00 | 0.00 | 39 | 1009.7 |
| 20260901020011 | 90 | 107 | 2.0 | 0.0 | 0.00 | 0.00 | 0.00 | 37 | 1009.4 |
| 20260901014511 | 91 | 107 | 2.0 | 0.0 | 0.00 | 0.00 | 0.00 | 36 | 1009.2 |
| 20260901013011 | 91 | 107 | 1.0 | 0.0 | 0.00 | 0.00 | 0.00 | 36 | 1009.2 |
| 20260901011510 | 92 | 107 | 2.0 | 0.0 | 0.00 | 0.00 | 0.00 | 35 | 1009.1 |
| 20260901010009 | 92 | 107 | 1.0 | 0.0 | 0.00 | 0.00 | 0.00 | 36 | 1009.1 |
| 20260901004509 | 93 | 107 | 1.0 | 0.0 | 0.00 | 0.00 | 0.00 | 35 | 1009.1 |
| 20260901003012 | 94 | 107 | 2.0 | 0.0 | 0.00 | 0.00 | 0.00 | 34 | 1009.1 |
| 20260901001514 | 95 | 107 | 3.0 | 0.0 | 0.00 | 0.00 | 0.00 | 33 | 1009.1 |
| 20260901000007 | 96 | 124 | 4.0 | 0.0 | 0.00 | 0.00 | 0.00 | 33 | 1009.0 |
| 20260831234522 | 97 | 111 | 3.0 | 0.0 | 0.00 | 0.00 | 0.00 | 33 | 1009.1 |
| 20260831233007 | 97 | 106 | 4.0 | 0.0 | 0.00 | 0.00 | 0.00 | 32 | 1009.1 |
| 20260831231505 | 97 | 102 | 3.0 | 0.0 | 0.00 | 0.00 | 0.00 | 34 | 1009.0 |
| 20260831230005 | 98 | 125 | 5.0 | 0.0 | 0.00 | 0.00 | 0.00 | 34 | 1009.1 |
| 20260831224504 | 98 | 120 | 4.0 | 0.0 | 0.00 | 0.00 | 0.00 | 34 | 1009.1 |
| 20260831223004 | 98 | 119 | 5.0 | 0.0 | 0.00 | 0.00 | 0.00 | 33 | 1009.3 |
| 20260831221509 | 98 | 129 | 4.0 | 0.0 | 0.00 | 0.00 | 0.00 | 33 | 1009.3 |
| 20260831220005 | 97 | 128 | 4.0 | 0.0 | 0.00 | 0.00 | 0.00 | 34 | 1009.5 |
| 20260831214500 | 97 | 162 | 3.0 | 0.0 | 0.00 | 0.00 | 0.00 | 35 | 1009.6 |
| 20260831213107 | 96 | 127 | 5.0 | 0.0 | 0.00 | 0.00 | 0.00 | 36 | 1009.7 |
| 20260831213004 | 97 | 128 | 5.0 | 0.0 | 0.00 | 0.00 | 0.00 | 35 | 1009.7 |
| 20260831211600 | 99 | 131 | 4.0 | 0.0 | 0.00 | 0.00 | 0.00 | 34 | 1009.7 |
| 20260831210059 | 97 | 129 | 5.0 | 0.0 | 0.00 | 0.00 | 0.00 | 34 | 1010.0 |
| 20260831204602 | 99 | 103 | 5.0 | 0.0 | 0.00 | 0.00 | 0.00 | 34 | 1010.2 |
| 20260831203127 | 98 | 189 | 4.0 | 0.0 | 0.00 | 0.00 | 0.00 | 34 | 1010.4 |
| 20260831201556 | 97 | 106 | 5.0 | 0.0 | 0.00 | 0.00 | 0.00 | 36 | 1010.7 |
| 20260831200057 | 97 | 132 | 5.0 | 0.0 | 0.00 | 0.00 | 0.00 | 36 | 1010.8 |
| 20260831194556 | 98 | 113 | 3.0 | 0.0 | 0.00 | 0.00 | 0.00 | 34 | 1010.9 |
| 20260831193056 | 98 | 118 | 5.0 | 0.0 | 0.00 | 0.00 | 0.00 | 35 | 1011.2 |
| 20260831191553 | 98 | 109 | 6.0 | 0.0 | 0.00 | 0.00 | 0.00 | 36 | 1011.4 |
| 20260831190116 | 97 | 119 | 5.0 | 0.0 | 0.00 | 0.00 | 0.00 | 36 | 1011.6 |
| 20260831184551 | 97 | 123 | 6.0 | 0.0 | 0.00 | 0.00 | 0.00 | 37 | 1011.7 |
| 20260831183049 | 96 | 131 | 7.0 | 0.0 | 0.00 | 0.00 | 0.00 | 40 | 1011.8 |
| 20260831181556 | 97 | 146 | 5.0 | 0.0 | 0.00 | 0.00 | 0.00 | 39 | 1012.0 |
| 20260831180047 | 96 | 105 | 5.0 | 0.0 | 0.00 | 0.00 | 0.00 | 42 | 1012.3 |
| 20260831174550 | 95 | 122 | 5.0 | 0.0 | 0.00 | 0.00 | 0.00 | 42 | 1012.6 |
| 20260831173044 | 95 | 111 | 5.0 | 0.0 | 0.00 | 0.00 | 0.00 | 42 | 1012.8 |
| 20260831171543 | 95 | 142 | 3.0 | 0.0 | 0.00 | 0.00 | 0.00 | 45 | 1012.9 |
| 20260831170041 | 94 | 199 | 5.0 | 0.0 | 0.00 | 0.00 | 0.00 | 46 | 1013.0 |
| 20260831164537 | 93 | 136 | 4.0 | 0.0 | 0.00 | 0.00 | 0.00 | 46 | 1013.1 |
| 20260831163035 | 92 | 159 | 4.0 | 0.0 | 0.00 | 0.00 | 0.00 | 48 | 1013.1 |
| 20260831161532 | 91 | 137 | 3.0 | 0.0 | 0.00 | 0.00 | 0.00 | 48 | 1013.2 |
| 20260831160040 | 90 | 140 | 4.0 | 0.0 | 0.00 | 0.00 | 0.00 | 51 | 1013.3 |
| 20260831154526 | 89 | 180 | 4.0 | 0.0 | 0.00 | 0.00 | 0.00 | 52 | 1013.3 |
| 20260831153044 | 88 | 196 | 5.0 | 0.0 | 0.00 | 0.00 | 0.00 | 57 | 1013.1 |
| 20260831151520 | 87 | 205 | 6.0 | 0.0 | 0.00 | 0.00 | 0.00 | 59 | 1013.0 |
| 20260831150016 | 86 | 200 | 6.0 | 0.0 | 0.00 | 0.00 | 0.00 | 63 | 1012.9 |
| 20260831144513 | 85 | 207 | 7.0 | 0.0 | 0.00 | 0.00 | 0.00 | 66 | 1012.8 |
| 20260831143011 | 84 | 242 | 6.0 | 0.0 | 0.00 | 0.00 | 0.00 | 66 | 1012.8 |
| 20260831141518 | 83 | 208 | 5.0 | 0.0 | 0.00 | 0.00 | 0.00 | 69 | 1012.8 |
| 20260831140013 | 82 | 181 | 5.0 | 0.0 | 0.00 | 0.00 | 0.00 | 71 | 1012.8 |
| 20260831134508 | 81 | 221 | 4.0 | 0.0 | 0.00 | 0.00 | 0.00 | 74 | 1012.6 |
| 20260831133007 | 80 | 203 | 4.0 | 0.0 | 0.00 | 0.00 | 0.00 | 77 | 1012.3 |
| 20260831131510 | 79 | 181 | 2.0 | 0.0 | 0.00 | 0.00 | 0.00 | 79 | 1012.3 |
| 20260831130005 | 78 | 120 | 2.0 | 0.0 | 0.00 | 0.00 | 0.00 | 80 | 1012.2 |
| 20260831124506 | 78 | 166 | 2.0 | 0.0 | 0.00 | 0.00 | 0.00 | 80 | 1012.0 |
| 20260831123004 | 78 | 175 | 2.0 | 0.0 | 0.00 | 0.00 | 0.00 | 79 | 1011.8 |
| 20260831121512 | 78 | 180 | 3.0 | 0.0 | 0.00 | 0.00 | 0.00 | 79 | 1011.3 |
| 20260831120005 | 77 | 189 | 3.0 | 0.0 | 0.00 | 0.00 | 0.00 | 78 | 1011.2 |
| 20260831114501 | 77 | 181 | 2.0 | 0.0 | 0.00 | 0.00 | 0.00 | 77 | 1011.1 |
| 20260831113101 | 78 | 153 | 2.0 | 0.0 | 0.00 | 0.00 | 0.00 | 77 | 1010.9 |
| 20260831111601 | 78 | 154 | 2.0 | 0.0 | 0.00 | 0.00 | 0.00 | 76 | 1010.8 |
| 20260831110058 | 78 | 159 | 2.0 | 0.0 | 0.00 | 0.00 | 0.00 | 75 | 1010.8 |
| 20260831104556 | 79 | 161 | 1.0 | 0.0 | 0.00 | 0.00 | 0.00 | 74 | 1010.7 |
| 20260831103054 | 79 | 161 | 1.0 | 0.0 | 0.00 | 0.00 | 0.00 | 74 | 1010.7 |
| 20260831101558 | 80 | 162 | 2.0 | 0.0 | 0.00 | 0.00 | 0.00 | 73 | 1010.7 |
| 20260831100053 | 80 | 151 | 2.0 | 0.0 | 0.00 | 0.00 | 0.00 | 72 | 1010.7 |
| 20260831094601 | 81 | 161 | 3.0 | 0.0 | 0.00 | 0.00 | 0.00 | 71 | 1010.6 |
| 20260831093048 | 81 | 183 | 3.0 | 0.0 | 0.00 | 0.00 | 0.00 | 70 | 1010.6 |
| 20260831091544 | 82 | 179 | 3.0 | 0.0 | 0.00 | 0.00 | 0.00 | 70 | 1010.5 |
| 20260831090043 | 82 | 181 | 3.0 | 0.0 | 0.00 | 0.00 | 0.00 | 69 | 1010.4 |
| 20260831084547 | 82 | 192 | 5.0 | 0.0 | 0.00 | 0.00 | 0.00 | 68 | 1010.3 |
| 20260831083051 | 83 | 199 | 6.0 | 0.0 | 0.00 | 0.00 | 0.00 | 67 | 1010.2 |
| 20260831081545 | 83 | 182 | 5.0 | 0.0 | 0.00 | 0.00 | 0.00 | 65 | 1010.2 |
| 20260831080038 | 83 | 185 | 4.0 | 0.0 | 0.00 | 0.00 | 0.00 | 64 | 1010.2 |
| 20260831074538 | 83 | 198 | 5.0 | 0.0 | 0.00 | 0.00 | 0.00 | 62 | 1010.2 |
| 20260831073038 | 83 | 192 | 4.0 | 0.0 | 0.00 | 0.00 | 0.00 | 61 | 1010.2 |
| 20260831071536 | 84 | 182 | 4.0 | 0.0 | 0.00 | 0.00 | 0.00 | 60 | 1010.2 |
| 20260831070055 | 84 | 184 | 5.0 | 0.0 | 0.00 | 0.00 | 0.00 | 58 | 1010.3 |
| 20260831064535 | 84 | 195 | 4.0 | 0.0 | 0.00 | 0.00 | 0.00 | 56 | 1010.3 |
| 20260831063033 | 84 | 171 | 3.0 | 0.0 | 0.00 | 0.00 | 0.00 | 55 | 1010.2 |
| 20260831061532 | 83 | 142 | 2.0 | 0.0 | 0.00 | 0.00 | 0.00 | 56 | 1010.2 |
| 20260831060030 | 82 | 107 | 0.0 | 0.0 | 0.00 | 0.00 | 0.00 | 56 | 1010.3 |
| 20260831054530 | 82 | 107 | 0.0 | 0.0 | 0.00 | 0.00 | 0.00 | 56 | 1010.2 |